LRI161 YMML-YPAD

Flight info

Callsign LRI161
Flight time N/A
Altitude 30000
Route PEDNI1/27 PEDNI H345 AD
Aircraft B738/M-SDE2E3FGHIRWXY/LB1

Departure

Time N/A
Airport Melbourne Airport (YMML)

Arrival

Time 2026-04-28 11:17
Airport Adelaide International Airport (YPAD)
Time Latitude Longitude Altitude Speed Heading
2026-04-28 10:22 -37.48750 144.14993 18327 ft 375 kts 291°
2026-04-28 10:22 -37.47766 144.11974 18877 ft 379 kts 291°
2026-04-28 10:22 -37.46762 144.08900 19420 ft 381 kts 291°
2026-04-28 10:22 -37.45751 144.05808 19981 ft 383 kts 291°
2026-04-28 10:23 -37.44728 144.02682 20514 ft 387 kts 291°
2026-04-28 10:23 -37.43730 143.99633 21045 ft 389 kts 291°
2026-04-28 10:23 -37.42695 143.96475 21581 ft 391 kts 291°
2026-04-28 10:23 -37.41650 143.93294 22104 ft 394 kts 291°
2026-04-28 10:24 -37.40600 143.90098 22606 ft 397 kts 291°
2026-04-28 10:24 -37.39554 143.86917 23091 ft 399 kts 291°
2026-04-28 10:24 -37.38487 143.83678 23576 ft 402 kts 291°
2026-04-28 10:24 -37.37412 143.80417 24006 ft 405 kts 291°
2026-04-28 10:25 -37.36330 143.77137 24395 ft 407 kts 291°
2026-04-28 10:25 -37.35240 143.73838 24772 ft 410 kts 291°
2026-04-28 10:25 -37.34142 143.70522 25154 ft 412 kts 291°
2026-04-28 10:25 -37.33038 143.67189 25525 ft 415 kts 291°
2026-04-28 10:26 -37.31924 143.63829 25891 ft 417 kts 291°
2026-04-28 10:26 -37.30804 143.60455 26264 ft 420 kts 292°
2026-04-28 10:26 -37.29678 143.57067 26665 ft 420 kts 292°
2026-04-28 10:26 -37.28549 143.53671 27029 ft 422 kts 292°
2026-04-28 10:27 -37.27410 143.50253 27349 ft 425 kts 292°
2026-04-28 10:27 -37.26264 143.46815 27660 ft 428 kts 292°
2026-04-28 10:27 -37.25125 143.43404 27977 ft 430 kts 292°
2026-04-28 10:27 -37.23966 143.39935 28298 ft 432 kts 292°
2026-04-28 10:28 -37.22798 143.36443 28597 ft 434 kts 292°
2026-04-28 10:28 -37.21624 143.32938 28892 ft 437 kts 292°
2026-04-28 10:28 -37.20443 143.29416 29178 ft 439 kts 292°
2026-04-28 10:29 -37.18130 143.22290 29773 ft 442 kts 291°
2026-04-28 10:29 -37.17036 143.18689 30161 ft 442 kts 290°
2026-04-28 10:29 -37.15951 143.15073 30238 ft 446 kts 290°
2026-04-28 10:30 -37.13765 143.07808 30246 ft 442 kts 290°
2026-04-28 10:30 -37.11589 143.00661 30254 ft 439 kts 291°
2026-04-28 10:31 -37.09431 142.93629 30255 ft 440 kts 290°
2026-04-28 10:31 -37.07240 142.86514 30254 ft 440 kts 290°
2026-04-28 10:32 -37.05029 142.79354 30255 ft 440 kts 290°
2026-04-28 10:32 -37.02818 142.72215 30258 ft 439 kts 290°
2026-04-28 10:33 -37.00607 142.65088 30252 ft 438 kts 290°
2026-04-28 10:33 -36.98412 142.58031 30251 ft 436 kts 290°
2026-04-28 10:34 -36.96208 142.50966 30251 ft 435 kts 290°
2026-04-28 10:34 -36.94018 142.43958 30252 ft 435 kts 290°
2026-04-28 10:35 -36.91811 142.36915 30258 ft 435 kts 290°
2026-04-28 10:35 -36.89591 142.29850 30252 ft 436 kts 290°
2026-04-28 10:36 -36.87368 142.22791 30249 ft 438 kts 290°
2026-04-28 10:36 -36.85129 142.15699 30258 ft 440 kts 290°
2026-04-28 10:37 -36.82878 142.08584 30254 ft 442 kts 290°
2026-04-28 10:37 -36.80624 142.01481 30248 ft 443 kts 290°
2026-04-28 10:38 -36.78377 141.94417 30258 ft 445 kts 290°
2026-04-28 10:38 -36.76088 141.87237 30255 ft 446 kts 290°
2026-04-28 10:39 -36.73792 141.80054 30256 ft 446 kts 290°
2026-04-28 10:39 -36.71488 141.72865 30256 ft 446 kts 290°
2026-04-28 10:40 -36.69179 141.65674 30260 ft 446 kts 290°
2026-04-28 10:40 -36.66867 141.58495 30261 ft 446 kts 290°
2026-04-28 10:41 -36.64567 141.51371 30262 ft 445 kts 290°
2026-04-28 10:41 -36.62254 141.44222 30260 ft 445 kts 290°
2026-04-28 10:42 -36.59940 141.37089 30262 ft 444 kts 290°
2026-04-28 10:42 -36.57619 141.29951 30260 ft 444 kts 290°
2026-04-28 10:43 -36.55300 141.22837 30265 ft 443 kts 290°
2026-04-28 10:43 -36.52981 141.15739 30268 ft 443 kts 291°
2026-04-28 10:44 -36.50656 141.08637 30258 ft 443 kts 291°
2026-04-28 10:44 -36.48343 141.01594 30261 ft 443 kts 291°
2026-04-28 10:45 -36.46043 140.94603 30263 ft 443 kts 291°
2026-04-28 10:45 -36.43702 140.87504 30272 ft 443 kts 291°
2026-04-28 10:46 -36.41371 140.80450 30268 ft 444 kts 291°
2026-04-28 10:46 -36.38802 140.73491 30262 ft 445 kts 300°
2026-04-28 10:47 -36.35058 140.67339 30259 ft 447 kts 307°
2026-04-28 10:47 -36.31172 140.61315 30270 ft 447 kts 307°
2026-04-28 10:48 -36.27314 140.55270 30269 ft 447 kts 306°
2026-04-28 10:48 -36.23463 140.49205 30267 ft 447 kts 306°
2026-04-28 10:49 -36.19643 140.43194 30270 ft 447 kts 306°
2026-04-28 10:49 -36.15945 140.37391 30244 ft 420 kts 306°
2026-04-28 10:49 -36.14168 140.34608 30246 ft 407 kts 306°
2026-04-28 10:50 -36.12412 140.31854 30261 ft 406 kts 306°
2026-04-28 10:50 -36.08981 140.26482 30266 ft 399 kts 306°
2026-04-28 10:51 -36.05486 140.21024 30275 ft 409 kts 306°
2026-04-28 10:51 -36.01959 140.15536 30255 ft 406 kts 306°
2026-04-28 10:51 -36.00240 140.12867 30241 ft 394 kts 306°
2026-04-28 10:52 -35.98568 140.10272 30244 ft 380 kts 306°
2026-04-28 10:52 -35.96950 140.07762 30234 ft 367 kts 306°
2026-04-28 10:52 -35.95390 140.05344 30246 ft 354 kts 306°
2026-04-28 10:52 -35.93875 140.02995 30083 ft 346 kts 306°
2026-04-28 10:53 -35.92382 140.00678 29784 ft 342 kts 306°
2026-04-28 10:53 -35.90949 139.98454 29268 ft 344 kts 306°
2026-04-28 10:53 -35.89455 139.96136 28759 ft 346 kts 306°
2026-04-28 10:53 -35.87951 139.93806 28247 ft 348 kts 306°
2026-04-28 10:54 -35.86440 139.91467 27653 ft 352 kts 307°
2026-04-28 10:54 -35.84907 139.89095 27035 ft 356 kts 307°
2026-04-28 10:54 -35.83350 139.86691 26441 ft 360 kts 307°
2026-04-28 10:54 -35.81780 139.84268 25850 ft 363 kts 307°
2026-04-28 10:55 -35.80198 139.81827 25268 ft 366 kts 307°
2026-04-28 10:55 -35.78619 139.79396 24713 ft 368 kts 307°
2026-04-28 10:55 -35.77022 139.76936 24336 ft 365 kts 307°
2026-04-28 10:55 -35.75445 139.74512 24027 ft 360 kts 307°
2026-04-28 10:56 -35.73891 139.72123 23591 ft 354 kts 308°
2026-04-28 10:56 -35.72362 139.69774 22848 ft 351 kts 308°
2026-04-28 10:56 -35.70834 139.67428 22030 ft 351 kts 308°
2026-04-28 10:56 -35.69332 139.65123 21644 ft 340 kts 308°
2026-04-28 10:57 -35.67869 139.62881 21227 ft 331 kts 307°
2026-04-28 10:57 -35.66447 139.60702 20848 ft 323 kts 307°
2026-04-28 10:57 -35.65517 139.59277 20607 ft 320 kts 307°
2026-04-28 10:57 -35.64138 139.57165 20253 ft 315 kts 307°
2026-04-28 10:58 -35.62762 139.55060 19920 ft 319 kts 307°
2026-04-28 10:58 -35.61332 139.52870 19579 ft 339 kts 307°
2026-04-28 10:58 -35.59353 139.49842 19031 ft 340 kts 307°
2026-04-28 10:58 -35.57890 139.47611 18653 ft 331 kts 307°
2026-04-28 10:59 -35.56924 139.46138 18378 ft 325 kts 307°
2026-04-28 10:59 -35.55522 139.44002 17980 ft 317 kts 307°
2026-04-28 10:59 -35.54149 139.41908 17614 ft 312 kts 307°
2026-04-28 10:59 -35.52797 139.39848 17256 ft 309 kts 308°
2026-04-28 11:00 -35.51454 139.37803 16933 ft 318 kts 308°
2026-04-28 11:00 -35.50026 139.35626 16579 ft 332 kts 308°
2026-04-28 11:00 -35.48575 139.33419 16190 ft 329 kts 308°
2026-04-28 11:00 -35.47154 139.31260 15800 ft 319 kts 308°
2026-04-28 11:01 -35.45780 139.29173 15443 ft 310 kts 308°
2026-04-28 11:01 -35.44436 139.27135 15099 ft 304 kts 308°
2026-04-28 11:01 -35.43108 139.25121 14745 ft 301 kts 308°
2026-04-28 11:01 -35.41592 139.23365 14408 ft 306 kts 327°
2026-04-28 11:02 -35.39601 139.22260 14073 ft 323 kts 337°
2026-04-28 11:02 -35.37486 139.21285 13632 ft 324 kts 338°
2026-04-28 11:02 -35.35396 139.20347 13245 ft 314 kts 338°
2026-04-28 11:02 -35.33405 139.19451 12888 ft 304 kts 338°
2026-04-28 11:03 -35.31443 139.18559 12546 ft 298 kts 338°
2026-04-28 11:03 -35.29517 139.17676 12218 ft 294 kts 338°
2026-04-28 11:03 -35.27599 139.16791 11902 ft 296 kts 337°
2026-04-28 11:03 -35.25624 139.15877 11582 ft 311 kts 338°
2026-04-28 11:04 -35.23584 139.14933 11216 ft 312 kts 337°
2026-04-28 11:04 -35.21582 139.14007 10852 ft 303 kts 338°
2026-04-28 11:04 -35.19649 139.13115 10549 ft 292 kts 338°
2026-04-28 11:04 -35.17788 139.12255 10350 ft 280 kts 338°
2026-04-28 11:05 -35.16010 139.11434 10206 ft 266 kts 338°
2026-04-28 11:05 -35.14306 139.10647 10078 ft 259 kts 338°
2026-04-28 11:05 -35.12641 139.09877 9922 ft 255 kts 338°
2026-04-28 11:05 -35.10950 139.09096 9673 ft 265 kts 338°
2026-04-28 11:06 -35.09205 139.08290 9395 ft 268 kts 338°
2026-04-28 11:06 -35.07491 139.07495 9112 ft 259 kts 336°
2026-04-28 11:06 -35.06016 139.06322 8840 ft 250 kts 316°
2026-04-28 11:06 -35.04786 139.04903 8607 ft 244 kts 316°
2026-04-28 11:07 -35.03549 139.03483 8364 ft 244 kts 316°
2026-04-28 11:07 -35.02298 139.02059 8125 ft 250 kts 317°
2026-04-28 11:07 -35.00994 139.00582 7876 ft 259 kts 317°
2026-04-28 11:07 -34.99710 138.99137 7607 ft 259 kts 317°
2026-04-28 11:08 -34.98405 138.97671 7330 ft 251 kts 317°
2026-04-28 11:08 -34.97138 138.96252 7069 ft 243 kts 317°
2026-04-28 11:08 -34.95913 138.94881 6831 ft 236 kts 317°
2026-04-28 11:08 -34.94705 138.93528 6602 ft 236 kts 317°
2026-04-28 11:09 -34.93481 138.92159 6368 ft 243 kts 317°
2026-04-28 11:09 -34.92195 138.90720 6118 ft 256 kts 317°
2026-04-28 11:09 -34.90873 138.89243 5835 ft 258 kts 317°
2026-04-28 11:09 -34.89567 138.87784 5558 ft 257 kts 317°
2026-04-28 11:10 -34.88255 138.86319 5363 ft 253 kts 317°
2026-04-28 11:10 -34.86972 138.84887 5247 ft 247 kts 317°
2026-04-28 11:10 -34.85714 138.83484 5009 ft 245 kts 317°
2026-04-28 11:10 -34.84464 138.82089 4775 ft 243 kts 317°
2026-04-28 11:11 -34.83234 138.80718 4659 ft 233 kts 317°
2026-04-28 11:11 -34.82063 138.79415 4488 ft 222 kts 317°
2026-04-28 11:11 -34.80962 138.78190 4436 ft 207 kts 316°
2026-04-28 11:11 -34.80072 138.76897 4405 ft 197 kts 290°
2026-04-28 11:12 -34.80071 138.75303 4314 ft 198 kts 248°
2026-04-28 11:12 -34.80824 138.73865 4073 ft 205 kts 237°
2026-04-28 11:12 -34.81666 138.72467 3795 ft 203 kts 234°
2026-04-28 11:12 -34.82540 138.71132 3517 ft 199 kts 233°
2026-04-28 11:13 -34.83412 138.69844 3251 ft 195 kts 232°
2026-04-28 11:13 -34.84267 138.68593 2989 ft 188 kts 232°
2026-04-28 11:13 -34.85070 138.67423 2752 ft 172 kts 232°
2026-04-28 11:13 -34.85824 138.66325 2519 ft 166 kts 232°
2026-04-28 11:14 -34.86564 138.65244 2312 ft 167 kts 231°
2026-04-28 11:14 -34.87311 138.64155 2099 ft 168 kts 232°
2026-04-28 11:14 -34.88034 138.63102 1856 ft 156 kts 231°
2026-04-28 11:14 -34.88698 138.62135 1660 ft 144 kts 231°
2026-04-28 11:15 -34.89325 138.61220 1494 ft 141 kts 231°
2026-04-28 11:15 -34.89964 138.60291 1318 ft 145 kts 230°
2026-04-28 11:15 -34.90614 138.59344 1094 ft 146 kts 230°
2026-04-28 11:15 -34.91260 138.58404 919 ft 145 kts 229°
2026-04-28 11:16 -34.91912 138.57454 712 ft 146 kts 229°
2026-04-28 11:16 -34.92548 138.56521 533 ft 145 kts 229°
2026-04-28 11:16 -34.93188 138.55584 346 ft 143 kts 229°
2026-04-28 11:16 -34.93836 138.54658 132 ft 143 kts 229°
2026-04-28 11:17 -34.94466 138.53731 19 ft 138 kts 229°
2026-04-28 11:17 -34.95030 138.52915 18 ft 115 kts 230°
2026-04-28 11:17 -34.95368 138.52425 14 ft 22 kts 230°
2026-04-28 11:17 -34.95431 138.52270 16 ft 20 kts 288°
2026-04-28 11:18 -34.95376 138.52202 18 ft 7 kts 332°
2026-04-28 11:18 -34.95333 138.52188 19 ft 6 kts 360°
2026-04-28 11:18 -34.95292 138.52205 21 ft 6 kts 32°
2026-04-28 11:18 -34.95251 138.52244 18 ft 10 kts 38°
2026-04-28 11:19 -34.95174 138.52317 16 ft 19 kts 38°
2026-04-28 11:19 -34.95061 138.52424 19 ft 20 kts 37°
2026-04-28 11:19 -34.94952 138.52526 16 ft 20 kts 37°
2026-04-28 11:19 -34.94845 138.52627 20 ft 19 kts 37°
2026-04-28 11:20 -34.94741 138.52724 19 ft 18 kts 38°
2026-04-28 11:20 -34.94641 138.52819 21 ft 18 kts 38°
2026-04-28 11:20 -34.94545 138.52910 23 ft 17 kts 38°
2026-04-28 11:20 -34.94455 138.53003 21 ft 17 kts 58°
2026-04-28 11:21 -34.94465 138.53132 20 ft 16 kts 124°
2026-04-28 11:21 -34.94516 138.53249 19 ft 16 kts 103°
2026-04-28 11:21 -34.94485 138.53374 16 ft 16 kts 51°
2026-04-28 11:21 -34.94413 138.53477 16 ft 16 kts 50°
2026-04-28 11:22 -34.94345 138.53577 16 ft 15 kts 50°
2026-04-28 11:22 -34.94271 138.53657 15 ft 14 kts
2026-04-28 11:22 -34.94176 138.53647 18 ft 14 kts 358°
2026-04-28 11:22 -34.94145 138.53626 20 ft 3 kts 320°
2026-04-28 11:23 -34.94130 138.53611 22 ft 4 kts 320°
2026-04-28 11:23 -34.94127 138.53608 22 ft 0 kts 320°